Regional Weather Roundup
Issued by NWS

Home | Current Version | Previous Version | Graphics & Text | Print | Product List | Glossary On
Versions: 1 2 3 4 5 6 7 8 9 10 11 12 13 14 15 16 17 18 19 20 21 22 23 24 25 26 27 28 29 30 31 32 33 34 35 36 37 38 39 40 41 42 43 44 45 46 47 48 49 50
000
ASUS43 KLSX 131057
RWRMO

WEATHER SUMMARY FOR MISSOURI
NATIONAL WEATHER SERVICE SPRINGFIELD MO
500 AM CST WED DEC 13 2017

NOTE: "FAIR" INDICATES FEW OR NO CLOUDS BELOW 12,000 FEET WITH NO
       SIGNIFICANT WEATHER AND/OR OBSTRUCTIONS TO VISIBILITY.
       CURRENT SKY AND/OR WEATHER CONDITIONS ARE NOT AVAILABLE FOR
       CHILLICOTHE AND FARMINGTON.

MOZ001>031-035>038-043-044-053-054-131200-
...NORTHERN AND WESTERN MISSOURI...

CITY           SKY/WX    TMP DP  RH WIND       PRES   REMARKS
KANSAS CTY INT CLEAR     37  27  67 SW16      29.68F WCI  28
LEE`S SUMMIT   CLEAR     36  28  73 SW17      29.71F WCI  26
ST JOSEPH      CLEAR     33  26  75 S6        29.69S WCI  28
CHILLICOTHE      N/A     31  25  78 S8        29.66F WCI  23

$$
MOZ066>068-077>081-088>096-101>105-131200-
...SOUTHWEST MISSOURI...

CITY           SKY/WX    TMP DP  RH WIND       PRES   REMARKS
SPRINGFIELD    CLEAR     31  20  63 S16       29.85F WCI  20
JOPLIN         CLEAR     41  26  55 S20       29.86F

$$
MOZ032>034-039>042-045>050-055>058-069>072-131200-
...CENTRAL MISSOURI...

CITY           SKY/WX    TMP DP  RH WIND       PRES   REMARKS
COLUMBIA       NOT AVBL
JEFFERSON CITY CLEAR     33  18  53 VRB3      29.79F
ROLLA          CLEAR     31  18  58 S16       29.82F WCI  20
SEDALIA        CLEAR     36  26  67 SW20G26   29.75F WCI  25
WARRENSBURG    CLEAR     32  25  74 S13G18    29.74F WCI  22

$$
MOZ051-052-059>065-131200-
...EAST CENTRAL MISSOURI...

CITY           SKY/WX    TMP DP  RH WIND       PRES   REMARKS
ST LOUIS INTL  CLEAR     31  16  54 S10       29.83F WCI  22

$$
MOZ072>076-082>087-097>100-106>115-131200-
...SOUTH CENTRAL AND SOUTHEAST MISSOURI...

CITY           SKY/WX    TMP DP  RH WIND       PRES   REMARKS
CAPE GIRARDEAU CLOUDY    26  14  60 S6        29.97F WCI  19
POPLAR BLUFF   CLEAR     26  18  71 S6        29.99F WCI  19
WEST PLAINS    CLOUDY    31  13  47 SW9       29.93F WCI  23

$$



USA.gov is the U.S. government's official web portal to all federal, state and local government web resources and services.